GORIZONT 27 [-]

Last updated on June 19, 2021, 11:33 a.m. UTC

1 22245U 92082A   21169.24341465  .00000073  00000-0  00000-0 0  9994
2 22245  14.7623 358.2494 0014320   4.0911 183.3390  1.00197968108838
UTC
Height (km)
Latitude
Longitude
Inclination
Orbital Period
UTC large
Height (km)
Speed (km/s)
/
Latitude / Longitude
Inclination (degrees)
Orbital Period (minutes)
Azimuth
Elevation
Range (km)
Doppler Factor
iOS Compass Heading
iOS Angle

Next 30 passes for location: Hong Kong

Rise time Rise Azimuth (degrees) Set time Set Azimuth (degrees) Duration Max altitude (degrees)

No matching passes for this satellites